TimeEDT,TemperatureF,Dew PointF,Humidity,Sea Level PressureIn,VisibilityMPH,Wind Direction,Wind SpeedMPH,Gust SpeedMPH,PrecipitationIn,Events,Conditions,WindDirDegrees,DateUTC
12:56 AM,53.1,46.0,77,30.02,10.0,WNW,9.2,-,N/A,,Clear,290,2011-11-05 04:56:00
1:56 AM,52.0,45.0,77,30.04,10.0,WNW,6.9,-,N/A,,Clear,300,2011-11-05 05:56:00
2:56 AM,51.1,45.0,80,30.04,10.0,NNW,6.9,-,N/A,,Clear,330,2011-11-05 06:56:00
3:56 AM,51.1,44.1,77,30.05,10.0,NNW,10.4,-,N/A,,Clear,340,2011-11-05 07:56:00
4:34 AM,51.8,44.6,76,30.05,10.0,NW,6.9,-,N/A,,Mostly Cloudy,320,2011-11-05 08:34:00
4:56 AM,51.1,44.1,77,30.07,10.0,NNW,11.5,-,N/A,,Scattered Clouds,340,2011-11-05 08:56:00
5:56 AM,50.0,39.0,66,30.09,10.0,North,13.8,24.2,N/A,,Clear,350,2011-11-05 09:56:00
6:56 AM,48.0,37.0,66,30.13,10.0,North,13.8,25.3,N/A,,Clear,350,2011-11-05 10:56:00
7:56 AM,46.9,35.1,63,30.15,10.0,NNW,13.8,24.2,N/A,,Clear,340,2011-11-05 11:56:00
8:56 AM,48.0,34.0,58,30.18,10.0,North,13.8,-,N/A,,Clear,350,2011-11-05 12:56:00
9:56 AM,51.1,34.0,52,30.21,10.0,North,17.3,23.0,N/A,,Clear,350,2011-11-05 13:56:00
10:56 AM,54.0,35.1,49,30.22,10.0,North,15.0,24.2,N/A,,Clear,360,2011-11-05 14:56:00
11:56 AM,57.9,37.0,46,30.24,10.0,North,12.7,20.7,N/A,,Clear,360,2011-11-05 15:56:00
12:56 PM,59.0,37.9,46,30.24,10.0,North,13.8,-,N/A,,Clear,10,2011-11-05 16:56:00
1:56 PM,61.0,39.0,44,30.22,10.0,North,13.8,-,N/A,,Clear,10,2011-11-05 17:56:00
2:56 PM,61.0,39.9,46,30.22,10.0,North,17.3,24.2,N/A,,Mostly Cloudy,10,2011-11-05 18:56:00
3:56 PM,60.1,39.9,47,30.23,10.0,North,10.4,-,N/A,,Overcast,10,2011-11-05 19:56:00
4:56 PM,60.1,41.0,49,30.25,10.0,North,8.1,-,N/A,,Overcast,360,2011-11-05 20:56:00
5:56 PM,57.9,42.1,56,30.25,10.0,North,8.1,-,N/A,,Overcast,350,2011-11-05 21:56:00
6:56 PM,57.0,41.0,55,30.27,10.0,North,9.2,-,N/A,,Overcast,350,2011-11-05 22:56:00
7:56 PM,57.0,42.1,57,30.28,10.0,NNW,12.7,-,N/A,,Overcast,340,2011-11-05 23:56:00
8:56 PM,55.0,42.1,62,30.28,10.0,NNW,12.7,18.4,N/A,,Partly Cloudy,340,2011-11-06 00:56:00
9:56 PM,55.0,42.1,62,30.29,10.0,North,11.5,-,N/A,,Overcast,10,2011-11-06 01:56:00
10:56 PM,54.0,41.0,62,30.30,10.0,North,10.4,-,N/A,,Overcast,360,2011-11-06 02:56:00
11:56 PM,51.1,39.9,66,30.31,10.0,NNW,10.4,-,N/A,,Clear,340,2011-11-06 03:56:00